Time_in_sec,gx,gy,gz
1314275008.90748119,0.02609348,0.00016697,-0.99965949
1314275008.95650363,0.02609446,0.00021114,-0.99965946
1314275009.00810695,0.02599113,0.00026235,-0.99966214
1314275009.05648613,0.02579869,0.00015064,-0.99966715
1314275009.10446692,0.02598605,0.00026516,-0.99966227
1314275009.15629101,0.02462693,0.00013813,-0.99969670
1314275009.20445728,0.02461280,0.00036672,-0.99969699
1314275009.25649476,0.02462518,0.00041847,-0.99969667
1314275009.29549170,0.02468899,0.00023634,-0.99969515
1314275009.35646415,0.02493121,0.00027544,-0.99968913
1314275009.40853357,0.02577798,-0.00073910,-0.99966742
1314275009.45646787,0.02541334,-0.00073584,-0.99967676
1314275009.50445008,0.02539511,-0.00060820,-0.99967731
1314275009.55616474,0.02515306,-0.00065303,-0.99968340
1314275009.60448074,0.02465337,-0.00063437,-0.99969586
1314275009.65616059,0.02475582,-0.00234044,-0.99969079
1314275009.70758629,0.02463909,-0.00243738,-0.99969344
1314275009.75667524,0.02464919,-0.00262172,-0.99969272
1314275009.79660773,0.02454866,-0.00256683,-0.99969534
1314275009.85647798,0.02448405,-0.00265103,-0.99969671
1314275009.90408683,0.02568028,-0.00287582,-0.99966607
1314275009.95659208,0.02557236,-0.00287936,-0.99966883
1314275010.00456381,0.02586578,-0.00286716,-0.99966131
1314275010.05592012,0.02572606,-0.00287573,-0.99966489
1314275010.10446477,0.02561640,-0.00282801,-0.99966785
1314275010.15649438,0.02503546,-0.00395688,-0.99967873
1314275010.20444989,0.02508644,-0.00366339,-0.99967857
1314275010.25954747,0.02494424,-0.00371980,-0.99968192
1314275010.29648232,0.02480158,-0.00368831,-0.99968559
1314275010.35574150,0.02489869,-0.00369450,-0.99968315
1314275010.41140056,0.02483859,-0.00516850,-0.99967811
1314275010.45647264,0.02471677,-0.00522868,-0.99968082
1314275010.50849009,0.02460028,-0.00519993,-0.99968384
1314275010.55651331,0.02463415,-0.00534058,-0.99968227
1314275010.60860968,0.02462086,-0.00544537,-0.99968203
1314275010.65563869,0.02401240,-0.00507770,-0.99969877
1314275010.70852828,0.02374748,-0.00493270,-0.99970582
1314275010.75574398,0.02365845,-0.00522050,-0.99970647
1314275010.79645610,0.02353284,-0.00524370,-0.99970931
1314275010.85566401,0.02367747,-0.00549709,-0.99970454
1314275010.90850568,0.02214470,-0.00421461,-0.99974589
1314275010.95651507,0.02220679,-0.00412445,-0.99974489
1314275011.00457239,0.02220910,-0.00417731,-0.99974462
1314275011.05646849,0.02263441,-0.00409174,-0.99973544
1314275011.10477901,0.02253465,-0.00422692,-0.99973713
1314275011.15652084,0.02141635,-0.00391750,-0.99976297
1314275011.20456195,0.02139703,-0.00399770,-0.99976306
1314275011.25557661,0.02132167,-0.00408832,-0.99976431
1314275011.29657316,0.02134531,-0.00428803,-0.99976297
1314275011.35657358,0.02122594,-0.00427503,-0.99976556
1314275011.40858769,0.01915779,-0.00391648,-0.99980880
1314275011.45648098,0.01916856,-0.00392007,-0.99980858
1314275011.50439692,0.01893593,-0.00402049,-0.99981262
1314275011.55551481,0.01882467,-0.00394694,-0.99981501
1314275011.60450244,0.01884092,-0.00403828,-0.99981434
1314275011.65636206,0.01554892,-0.00467809,-0.99986816
1314275011.70848227,0.01535357,-0.00483605,-0.99987043
1314275011.75647807,0.01531058,-0.00479326,-0.99987130
1314275011.80751610,0.01515183,-0.00493084,-0.99987305
1314275011.85647726,0.01533726,-0.00505296,-0.99986961
1314275011.90449595,0.01251735,-0.00287336,-0.99991753
1314275011.95546103,0.01230419,-0.00293584,-0.99991999
1314275012.00449920,0.01233072,-0.00292302,-0.99991970
1314275012.05545974,0.01224624,-0.00279898,-0.99992109
1314275012.10423899,0.01199074,-0.00276337,-0.99992429
1314275012.16295910,0.01225753,-0.00150516,-0.99992374
1314275012.20904446,0.01232589,-0.00146349,-0.99992296
1314275012.25647974,0.01223804,-0.00138156,-0.99992416
1314275012.29947662,0.01210308,-0.00140285,-0.99992577
1314275012.35660982,0.01206281,-0.00137330,-0.99992630
1314275012.40465569,0.01351531,-0.00079762,-0.99990835
1314275012.45619607,0.01334820,-0.00086792,-0.99991053
1314275012.50859261,0.01308495,-0.00084629,-0.99991403
1314275012.55648947,0.01337771,-0.00082748,-0.99991017
1314275012.60748053,0.01367944,-0.00082532,-0.99990609
1314275012.65648079,0.01417772,-0.00050024,-0.99989937
1314275012.70850754,0.01409669,-0.00051739,-0.99990050
1314275012.75658107,0.01397546,-0.00040714,-0.99990226
1314275012.79646254,0.01397601,-0.00068986,-0.99990209
1314275012.85604382,0.01396916,-0.00066639,-0.99990220
1314275012.90848184,0.01302916,-0.00070316,-0.99991487
1314275012.95645785,0.01308255,-0.00067200,-0.99991419
1314275013.00858998,0.01285594,-0.00060333,-0.99991718
1314275013.05647063,0.01275354,-0.00053788,-0.99991853
1314275013.10444546,0.01269190,-0.00042402,-0.99991936
1314275013.15555906,0.01307503,-0.00118779,-0.99991381
1314275013.20515037,0.01283384,-0.00121672,-0.99991690
1314275013.25557208,0.01261413,-0.00101613,-0.99991992
1314275013.29663968,0.01254022,-0.00100940,-0.99992086
1314275013.35646200,0.01231631,-0.00100749,-0.99992364
1314275013.40746927,0.01162747,-0.00091817,-0.99993198
1314275013.45648003,0.01157496,-0.00105726,-0.99993245
1314275013.50850058,0.01138578,-0.00104591,-0.99993463
1314275013.55660486,0.01100614,-0.00095815,-0.99993897
1314275013.60475397,0.01073819,-0.00093148,-0.99994191
1314275013.65559697,0.01038315,-0.00098050,-0.99994561
1314275013.70756149,0.01004419,-0.00104010,-0.99994901
1314275013.75645542,0.00989701,-0.00104810,-0.99995047
1314275013.79649591,0.01006204,-0.00101397,-0.99994886
1314275013.85552192,0.01000809,-0.00093377,-0.99994948
1314275013.90858197,0.00947112,-0.00072398,-0.99995489
1314275013.95557094,0.00959543,-0.00076002,-0.99995367
1314275014.00457358,0.00947480,-0.00083156,-0.99995477
1314275014.05556893,0.00945309,-0.00105489,-0.99995476
1314275014.10858655,0.00961112,-0.00093079,-0.99995338
1314275014.15663910,0.00941708,-0.00015189,-0.99995565
1314275014.20857525,0.00932520,-0.00005448,-0.99995652
1314275014.25648403,0.00932963,-0.00015524,-0.99995647
1314275014.30443072,0.00942874,-0.00029381,-0.99995551
1314275014.35548329,0.00937595,-0.00039717,-0.99995597
1314275014.40442014,0.00919923,0.00048775,-0.99995757
1314275014.45950103,0.00913753,0.00062361,-0.99995806
1314275014.50849962,0.00896340,0.00075732,-0.99995954
1314275014.54552269,0.00871862,0.00110207,-0.99996138
1314275014.60445285,0.00876309,0.00100602,-0.99996110
1314275014.65647888,0.00791777,0.00249587,-0.99996554
1314275014.70441532,0.00774028,0.00270371,-0.99996639
1314275014.75623775,0.00782826,0.00256157,-0.99996608
1314275014.80499196,0.00778045,0.00271763,-0.99996604
1314275014.85622263,0.00763296,0.00244382,-0.99996788
1314275014.90450025,0.00622012,0.00375004,-0.99997362
1314275014.95645523,0.00603184,0.00351526,-0.99997563
1314275015.00459504,0.00614126,0.00334930,-0.99997553
1314275015.04751897,0.00601263,0.00310381,-0.99997711
1314275015.10432529,0.00616625,0.00309510,-0.99997620
1314275015.15956259,0.00499332,0.00414772,-0.99997893
1314275015.20441914,0.00497477,0.00432990,-0.99997825
1314275015.25611138,0.00494046,0.00411739,-0.99997932
1314275015.30449963,0.00495513,0.00433694,-0.99997832
1314275015.35653639,0.00487027,0.00418542,-0.99997938
1314275015.40445065,0.00538301,0.00521915,-0.99997189
1314275015.45645690,0.00540763,0.00528234,-0.99997143
1314275015.50399518,0.00527761,0.00515911,-0.99997276
1314275015.54759622,0.00524334,0.00528525,-0.99997229
1314275015.60446024,0.00528316,0.00554652,-0.99997066
1314275015.65659642,0.00457630,0.00691970,-0.99996559
1314275015.70451880,0.00471750,0.00706142,-0.99996394
1314275015.75645924,0.00470232,0.00682296,-0.99996567
1314275015.80449057,0.00474577,0.00689202,-0.99996499
1314275015.85647559,0.00478467,0.00678100,-0.99996556
1314275015.90444922,0.00441072,0.00754672,-0.99996180
1314275015.95660377,0.00445619,0.00742277,-0.99996252
1314275016.00448632,0.00445595,0.00749900,-0.99996195
1314275016.04859757,0.00472977,0.00731710,-0.99996204
1314275016.10392547,0.00488091,0.00726515,-0.99996170
1314275016.15657377,0.00447046,0.00812598,-0.99995699
1314275016.20860910,0.00443541,0.00817143,-0.99995678
1314275016.25653100,0.00449470,0.00808788,-0.99995719
1314275016.30779338,0.00470236,0.00814296,-0.99995579
1314275016.35659480,0.00466547,0.00821867,-0.99995534
1314275016.40926576,0.00434534,0.00911255,-0.99994904
1314275016.45661187,0.00401961,0.00891654,-0.99995217
1314275016.50848842,0.00387294,0.00909148,-0.99995117
1314275016.55484128,0.00387370,0.00926082,-0.99994961
1314275016.60862565,0.00386556,0.00927457,-0.99994952
1314275016.65647364,0.00375248,0.00967380,-0.99994617
1314275016.70746422,0.00387203,0.00946033,-0.99994775
1314275016.75556111,0.00397982,0.00943844,-0.99994754
1314275016.79649401,0.00390433,0.00935303,-0.99994864
1314275016.85557795,0.00395460,0.00921570,-0.99994971
1314275016.90858936,0.00503124,0.00865077,-0.99994992
1314275016.95775747,0.00522213,0.00845967,-0.99995058
1314275017.00455022,0.00547168,0.00847161,-0.99994915
1314275017.04848146,0.00552368,0.00828834,-0.99995039
1314275017.10754967,0.00534400,0.00828755,-0.99995138
1314275017.15554500,0.00548729,0.00796075,-0.99995326
1314275017.20444751,0.00544986,0.00814367,-0.99995199
1314275017.25640655,0.00558445,0.00817895,-0.99995096
1314275017.30847883,0.00543413,0.00812167,-0.99995225
1314275017.35442138,0.00557668,0.00826604,-0.99995029
1314275017.40451407,0.00517955,0.00803739,-0.99995429
1314275017.45647264,0.00529120,0.00810108,-0.99995319
1314275017.50447559,0.00523093,0.00806587,-0.99995379
1314275017.54747748,0.00521115,0.00810689,-0.99995356
1314275017.60441566,0.00501062,0.00820130,-0.99995382
1314275017.65956187,0.00472130,0.00834393,-0.99995404
1314275017.70850229,0.00453163,0.00830772,-0.99995522
1314275017.75645518,0.00454884,0.00829496,-0.99995525
1314275017.80746818,0.00449265,0.00808162,-0.99995725
1314275017.85646844,0.00456695,0.00812913,-0.99995653
1314275017.90827203,0.00394213,0.00912804,-0.99995057
1314275017.95552230,0.00402171,0.00934750,-0.99994822
1314275018.00442576,0.00393607,0.00943418,-0.99994775
1314275018.04848409,0.00397564,0.00939441,-0.99994797
1314275018.10417533,0.00371620,0.00956780,-0.99994732
1314275018.15560675,0.00334169,0.00971676,-0.99994721
1314275018.20811605,0.00324219,0.00972016,-0.99994750
1314275018.25647449,0.00331462,0.00962698,-0.99994817
1314275018.30444431,0.00315612,0.00948196,-0.99995006
1314275018.35632396,0.00311271,0.00980852,-0.99994705
1314275018.40445065,0.00221837,0.01106613,-0.99993631
1314275018.45632935,0.00228239,0.01125346,-0.99993407
1314275018.50745201,0.00223713,0.01132773,-0.99993334
1314275018.54844642,0.00232567,0.01139694,-0.99993235
1314275018.60448408,0.00219533,0.01140103,-0.99993260
1314275018.65649199,0.00064024,0.01277911,-0.99991814
1314275018.70847797,0.00068418,0.01301105,-0.99991512
1314275018.75658727,0.00089581,0.01293642,-0.99991592
1314275018.80444121,0.00077764,0.01315441,-0.99991317
1314275018.85597229,0.00074488,0.01296855,-0.99991563
1314275018.90745687,0.00046724,0.01289307,-0.99991677
1314275018.95645094,0.00047114,0.01304589,-0.99991479
1314275019.00437832,0.00042336,0.01274184,-0.99991873
1314275019.04757190,0.00038597,0.01286224,-0.99991720
1314275019.10442758,0.00048316,0.01302422,-0.99991506
1314275019.15590024,0.00040984,0.01341233,-0.99990997
1314275019.20846033,0.00045074,0.01367158,-0.99990644
1314275019.25558376,0.00053750,0.01362100,-0.99990709
1314275019.30770826,0.00082462,0.01346247,-0.99990904
1314275019.35647631,0.00081181,0.01336371,-0.99991037
1314275019.40765548,0.00032777,0.01312819,-0.99991377
1314275019.45647430,0.00021142,0.01312704,-0.99991381
1314275019.50849032,0.00033696,0.01277572,-0.99991833
1314275019.54750633,0.00024269,0.01277298,-0.99991839
1314275019.60842848,0.00015839,0.01279195,-0.99991817
1314275019.65573502,0.00056020,0.01256606,-0.99992089
1314275019.70745969,0.00045227,0.01245359,-0.99992235
1314275019.75649500,0.00052602,0.01265945,-0.99991973
1314275019.80754805,0.00051052,0.01264691,-0.99991989
1314275019.85648894,0.00029924,0.01256748,-0.99992098
1314275019.90744591,-0.00019573,0.01305376,-0.99991478
1314275019.95561171,-0.00033160,0.01317796,-0.99991311
1314275020.01104879,-0.00040983,0.01298293,-0.99991563
1314275020.04755759,-0.00013203,0.01309813,-0.99991421
1314275020.11047435,-0.00025015,0.01299358,-0.99991555
1314275020.15648937,-0.00016890,0.01220036,-0.99992556
1314275020.20450306,-0.00019457,0.01228083,-0.99992457
1314275020.25647974,-0.00005355,0.01252872,-0.99992151
1314275020.30849028,-0.00006419,0.01237572,-0.99992342
1314275020.35931158,0.00020069,0.01236203,-0.99992357
1314275020.40443897,0.00030024,0.01175102,-0.99993091
1314275020.45544457,0.00031855,0.01157050,-0.99993301
1314275020.50432920,0.00013676,0.01165387,-0.99993208
1314275020.54657245,-0.00001666,0.01154476,-0.99993336
1314275020.60433197,0.00007377,0.01148873,-0.99993400
1314275020.65645075,0.00126670,0.01129345,-0.99993542
1314275020.70843577,0.00112066,0.01121436,-0.99993649
1314275020.75648379,0.00125562,0.01112714,-0.99993730
1314275020.80445337,0.00120606,0.01125295,-0.99993596
1314275020.85645628,0.00100599,0.01112770,-0.99993758
1314275020.90846133,0.00150656,0.01015129,-0.99994734
1314275020.95648193,0.00158093,0.01012269,-0.99994751
1314275021.00846434,0.00160243,0.01014584,-0.99994725
1314275021.04845071,0.00172789,0.01021253,-0.99994636
1314275021.10461783,0.00182547,0.01027895,-0.99994550
1314275021.15546274,0.00218011,0.00959223,-0.99995162
1314275021.20469618,0.00200129,0.00959333,-0.99995198
1314275021.25545979,0.00203089,0.00959729,-0.99995188
1314275021.30761337,0.00202128,0.00942695,-0.99995352
1314275021.35647035,0.00186581,0.00966886,-0.99995151
1314275021.40847707,0.00352897,0.00806321,-0.99996126
1314275021.45652151,0.00350875,0.00799732,-0.99996187
1314275021.50748062,0.00334662,0.00793534,-0.99996291
1314275021.54418778,0.00332115,0.00795099,-0.99996288
1314275021.60444069,0.00344619,0.00782516,-0.99996344
1314275021.65654922,0.00432245,0.00709496,-0.99996549
1314275021.70850992,0.00423072,0.00665890,-0.99996888
1314275021.75671005,0.00437550,0.00683169,-0.99996709
1314275021.80757189,0.00458213,0.00656151,-0.99996797
1314275021.85722852,0.00474846,0.00645113,-0.99996792
1314275021.90790009,0.00618677,0.00585888,-0.99996370
1314275021.95659351,0.00601381,0.00581636,-0.99996500
1314275022.00445342,0.00578919,0.00589813,-0.99996585
1314275022.04843664,0.00568712,0.00577128,-0.99996717
1314275022.10390592,0.00552392,0.00562632,-0.99996891
1314275022.15649462,0.00457559,0.00550171,-0.99997440
1314275022.20849609,0.00443729,0.00540944,-0.99997552
1314275022.25647688,0.00454747,0.00538574,-0.99997516
1314275022.30774450,0.00447618,0.00524755,-0.99997621
1314275022.35585093,0.00409118,0.00536813,-0.99997722
1314275022.40884399,0.00426717,0.00509155,-0.99997793
1314275022.45586014,0.00412587,0.00496252,-0.99997918
1314275022.50759077,0.00396996,0.00473708,-0.99998090
1314275022.54846764,0.00389406,0.00493306,-0.99998025
1314275022.60771656,0.00400693,0.00510967,-0.99997892
1314275022.65645576,0.00460767,0.00378453,-0.99998222
1314275022.70758319,0.00458718,0.00406711,-0.99998121
1314275022.75565028,0.00464205,0.00400132,-0.99998122
1314275022.80845356,0.00450476,0.00390702,-0.99998222
1314275022.85557222,0.00453505,0.00392190,-0.99998203
1314275022.90747452,0.00501235,0.00364640,-0.99998079
1314275022.95659804,0.00488866,0.00355223,-0.99998174
1314275023.00451469,0.00504954,0.00348122,-0.99998119
1314275023.04445982,0.00514203,0.00331804,-0.99998127
1314275023.10449743,0.00524164,0.00325733,-0.99998096
1314275023.15557647,0.00636198,0.00299759,-0.99997527
1314275023.20447278,0.00640790,0.00336375,-0.99997381
1314275023.25557256,0.00636736,0.00328697,-0.99997433
1314275023.30745935,0.00627767,0.00334747,-0.99997469
1314275023.35659671,0.00643338,0.00332842,-0.99997377
1314275023.40752316,0.00751810,0.00287901,-0.99996759
1314275023.45647740,0.00768960,0.00298834,-0.99996597
1314275023.50832367,0.00733351,0.00301485,-0.99996856
1314275023.55648279,0.00733900,0.00297535,-0.99996864
1314275023.60442472,0.00737738,0.00279418,-0.99996888
1314275023.65548158,0.00821458,0.00179254,-0.99996465
1314275023.70751953,0.00816497,0.00182267,-0.99996500
1314275023.75645351,0.00850067,0.00184344,-0.99996217
1314275023.80849814,0.00829259,0.00177280,-0.99996404
1314275023.85648322,0.00847208,0.00159427,-0.99996284
1314275023.90442252,0.00962653,0.00077544,-0.99995336
1314275023.95545602,0.00960007,0.00096225,-0.99995346
1314275024.00442290,0.00950727,0.00112956,-0.99995417
1314275024.05948400,0.00956675,0.00088763,-0.99995384
1314275024.10442066,0.00985678,0.00070892,-0.99995117
1314275024.15649104,0.01035243,0.00100847,-0.99994590
1314275024.20750260,0.01022197,0.00109447,-0.99994716
1314275024.26046824,0.00983656,0.00083277,-0.99995127
1314275024.29658175,0.00973587,0.00072819,-0.99995234
1314275024.35557222,0.00980175,0.00058405,-0.99995179
1314275024.40445042,0.01104797,0.00038871,-0.99993889
1314275024.45657730,0.01090956,0.00034928,-0.99994043
1314275024.50445938,0.01097201,0.00031650,-0.99993976
1314275024.55645347,0.01121328,0.00034078,-0.99993707
1314275024.60448956,0.01119577,0.00011918,-0.99993732
1314275024.65647054,0.01118153,-0.00045883,-0.99993738
1314275024.70745540,0.01103117,-0.00072546,-0.99993889
1314275024.75657916,0.01120842,-0.00072473,-0.99993692
1314275024.79643965,0.01103160,-0.00057640,-0.99993898
1314275024.85589004,0.01091847,-0.00068137,-0.99994016
1314275024.90453720,0.01104242,-0.00062180,-0.99993884
1314275024.95647788,0.01118777,-0.00091250,-0.99993700
1314275025.00450349,0.01135028,-0.00090366,-0.99993518
1314275025.05647802,0.01145688,-0.00105320,-0.99993381
1314275025.10848403,0.01173389,-0.00092150,-0.99993073
1314275025.15601778,0.01102751,-0.00052273,-0.99993906
1314275025.20846200,0.01099506,-0.00065311,-0.99993934
1314275025.25659609,0.01093094,-0.00050259,-0.99994013
1314275025.29648471,0.01082097,-0.00053600,-0.99994131
1314275025.35646868,0.01104567,-0.00031421,-0.99993895
1314275025.40846586,0.00992664,0.00027780,-0.99995069
1314275025.45645475,0.01000894,0.00003797,-0.99994991
1314275025.50848484,0.00986832,0.00004184,-0.99995131
1314275025.55948138,0.00989246,0.00024926,-0.99995104
1314275025.60842991,0.00991233,0.00033240,-0.99995082
1314275025.65564775,0.00899936,0.00107421,-0.99995893
1314275025.70745492,0.00896804,0.00091490,-0.99995937
1314275025.75646305,0.00888962,0.00094073,-0.99996004
1314275025.79563522,0.00884179,0.00096170,-0.99996045
1314275025.85645390,0.00878044,0.00100679,-0.99996094
1314275025.90445375,0.00911019,0.00131000,-0.99995764
1314275025.95543456,0.00883660,0.00130462,-0.99996011
1314275026.01227427,0.00884550,0.00125422,-0.99996009
1314275026.05557513,0.00857881,0.00109136,-0.99996261
1314275026.10758519,0.00851001,0.00106715,-0.99996322
1314275026.15646076,0.00867738,0.00004536,-0.99996235
1314275026.20756650,0.00837775,-0.00003687,-0.99996491
1314275026.25647616,0.00839905,0.00016781,-0.99996471
1314275026.29652739,0.00857258,0.00005220,-0.99996325
1314275026.35638857,0.00845282,0.00011886,-0.99996427
1314275026.40448380,0.00816984,-0.00071993,-0.99996637
1314275026.45640254,0.00799573,-0.00064718,-0.99996782
1314275026.50461102,0.00777373,-0.00065067,-0.99996957
1314275026.55755091,0.00762015,-0.00079332,-0.99997065
1314275026.60441804,0.00774857,-0.00091505,-0.99996956
1314275026.65547228,0.00783577,-0.00066474,-0.99996908
1314275026.70432520,0.00797766,-0.00059487,-0.99996800
1314275026.75544143,0.00782797,-0.00063713,-0.99996916
1314275026.79644036,0.00768337,-0.00070772,-0.99997023
1314275026.85623741,0.00760266,-0.00074991,-0.99997082
